Temp
-8 -8 -8 -7 -7 -7 -8 -7 -7 -7 -7 -7 -7 -7 -7 -8 -8 -8 -7 -8 -8 -8 -8 -8 -8 -8 -8 -8 -8 -8 -9 -9 -9 -9 -9 -10 -10 -10 -11 -11 -11 -11 -12
-8 -8 -8 -8 -8 -8 -8 -8 -8 -8 -7 -8 -8 -8 -8 -8 -8 -8 -8 -8 -8 -8 -8 -8 -8 -9 -9 -8 -8 -9 -9 -9 -9 -9 -9 -10 -10 -10 -11 -12 -11 -12 -12
-8 -8 -8 -8 -8 -8 -8 -8 -8 -8 -8 -8 -8 -8 -8 -8 -8 -8 -8 -8 -8 -8 -8 -8 -9 -9 -9 -9 -9 -9 -9 -9 -9 -10 -10 -10 -10 -11 -11 -11 -12 -12 -12
-8 -8 -8 -8 -8 -9 -8 -8 -8 -9 -9 -9 -8 -8 -8 -8 -8 -8 -8 -9 -9 -8 -8 -9 -9 -9 -9 -9 -9 -9 -9 -9 -9 -9 -10 -10 -11 -11 -11 -12 -12 -12 -12
-9 -9 -9 -9 -9 -9 -9 -9 -9 -9 -9 -9 -9 -9 -9 -9 -9 -8 -8 -8 -9 -9 -9 -9 -9 -9 -9 -9 -9 -9 -9 -9 -9 -9 -10 -11 -11 -11 -11 -11 -12 -12 -12
-9 -9 -9 -9 -9 -9 -9 -9 -9 -9 -9 -9 -9 -9 -9 -9 -9 -9 -9 -9 -9 -9 -9 -9 -9 -9 -9 -9 -9 -9 -9 -9 -9 -10 -10 -11 -11 -11 -12 -12 -12 -12 -13
-9 -9 -10 -10 -10 -10 -10 -10 -10 -10 -10 -10 -10 -10 -10 -10 -10 -10 -9 -9 -9 -9 -9 -9 -10 -9 -10 -9 -9 -9 -9 -9 -9 -10 -10 -11 -11 -11 -11 -13 -12 -12 -12
-9 -9 -9 -10 -10 -10 -10 -10 -10 -10 -10 -10 -10 -10 -10 -10 -10 -10 -10 -10 -9 -9 -9 -10 -10 -10 -10 -10 -10 -10 -10 -10 -10 -10 -10 -10 -11 -11 -11 -12 -12 -13 -12
-9 -9 -9 -9 -10 -10 -10 -10 -10 -11 -11 -10 -10 -10 -10 -10 -10 -10 -10 -10 -10 -10 -10 -10 -10 -10 -10 -10 -10 -10 -10 -10 -10 -10 -10 -11 -11 -11 -12 -12 -13 -13 -13
-8 -8 -9 -9 -10 -10 -10 -11 -11 -11 -11 -10 -11 -11 -11 -11 -10 -10 -10 -10 -10 -10 -10 -10 -10 -10 -10 -10 -10 -10 -10 -11 -10 -10 -11 -11 -12 -11 -11 -12 -12 -12 -13
-8 -8 -9 -9 -10 -10 -11 -11 -11 -11 -11 -11 -11 -11 -11 -11 -11 -10 -10 -10 -10 -10 -10 -10 -10 -10 -10 -10 -10 -10 -10 -10 -10 -11 -11 -11 -11 -11 -11 -12 -12 -12 -13
-9 -9 -9 -9 -10 -10 -10 -11 -11 -11 -11 -11 -11 -12 -12 -11 -11 -11 -10 -10 -10 -10 -11 -10 -10 -10 -10 -11 -11 -11 -10 -10 -11 -11 -11 -11 -11 -11 -12 -11 -13 -12 -12
-9 -9 -9 -9 -9 -10 -10 -11 -11 -11 -11 -11 -12 -12 -12 -12 -12 -11 -11 -10 -11 -10 -11 -11 -10 -10 -10 -11 -11 -11 -11 -11 -11 -11 -11 -11 -11 -12 -12 -11 -12 -13 -12
-9 -10 -9 -9 -10 -10 -10 -11 -12 -12 -12 -12 -12 -12 -12 -12 -12 -12 -12 -12 -11 -11 -11 -11 -11 -10 -10 -11 -11 -11 -11 -11 -11 -11 -11 -11 -12 -12 -12 -11 -11 -12 -12
-9 -10 -10 -10 -10 -10 -11 -11 -12 -12 -13 -13 -13 -13 -12 -12 -13 -13 -12 -11 -11 -11 -12 -11 -11 -11 -11 -11 -11 -12 -11 -11 -11 -11 -11 -11 -12 -12 -11 -11 -11 -11 -12
-10 -10 -10 -10 -11 -11 -12 -12 -12 -12 -13 -13 -13 -13 -13 -12 -13 -13 -12 -12 -12 -12 -12 -12 -12 -12 -12 -11 -11 -11 -12 -11 -11 -11 -12 -12 -12 -12 -11 -12 -11 -12 -12
-10 -10 -10 -11 -11 -11 -12 -12 -13 -13 -14 -13 -13 -13 -14 -14 -14 -13 -13 -12 -12 -12 -12 -12 -13 -12 -12 -12 -12 -12 -12 -11 -11 -11 -12 -12 -12 -12 -11 -12 -12 -12 -13
-10 -10 -11 -11 -11 -12 -12 -12 -13 -14 -14 -14 -14 -14 -14 -14 -13 -13 -13 -13 -13 -12 -12 -13 -13 -12 -12 -12 -12 -12 -12 -12 -12 -12 -12 -12 -12 -12 -12 -12 -12 -11 -13
-11 -11 -11 -11 -12 -12 -13 -13 -13 -13 -14 -14 -14 -14 -14 -14 -14 -14 -13 -14 -14 -14 -13 -13 -13 -13 -13 -13 -13 -12 -12 -12 -12 -12 -12 -12 -12 -12 -12 -12 -12 -11 -11
-12 -12 -12 -12 -12 -12 -13 -13 -13 -13 -13 -13 -13 -13 -13 -14 -14 -14 -15 -15 -14 -15 -14 -14 -14 -14 -13 -13 -13 -13 -12 -12 -12 -12 -13 -12 -12 -12 -12 -12 -12 -11 -11
-12 -12 -13 -13 -13 -13 -13 -13 -13 -13 -13 -13 -13 -13 -13 -14 -14 -14 -15 -16 -15 -16 -15 -15 -14 -14 -13 -13 -13 -13 -12 -12 -12 -13 -13 -13 -13 -12 -12 -12 -12 -12 -12
-12 -13 -13 -14 -14 -13 -13 -13 -13 -13 -13 -13 -13 -13 -13 -14 -14 -16 -16 -16 -17 -16 -16 -15 -15 -15 -14 -14 -13 -13 -13 -12 -13 -13 -13 -13 -12 -12 -12 -12 -11 -12 -12
-13 -14 -14 -14 -14 -14 -14 -13 -13 -13 -13 -13 -13 -13 -14 -15 -16 -13 -15 -16 -16 -16 -16 -15 -15 -15 -15 -15 -14 -13 -13 -12 -13 -13 -13 -13 -12 -12 -12 -12 -12 -12 -12
-14 -14 -14 -14 -14 -14 -14 -13 -13 -13 -12 -12 -13 -13 -15 -16 -16 -17 -17 -17 -17 -17 -16 -16 -16 -16 -15 -15 -14 -14 -13 -12 -13 -13 -13 -13 -12 -12 -13 -12 -12 -12 -12
-15 -15 -15 -14 -14 -14 -14 -13 -13 -13 -13 -14 -15 -16 -16 -17 -17 -17 -17 -18 -17 -17 -16 -16 -16 -16 -16 -16 -15 -14 -13 -13 -13 -14 -14 -13 -13 -13 -14 -12 -12 -12 -12
-15 -15 -15 -15 -14 -14 -13 -13 -13 -14 -15 -15 -16 -16 -16 -16 -17 -17 -18 -18 -18 -17 -17 -16 -16 -15 -16 -17 -16 -15 -14 -14 -14 -14 -13 -14 -13 -13 -13 -13 -13 -13 -13
Height
5856 5857 5856 5856 5855 5855 5855 5855 5855 5854 5854 5854 5854 5853 5852 5852 5852 5852 5852 5851 5850 5849 5848 5847 5846 5845 5844 5844 5842 5841 5839 5839 5839 5839 5838 5837 5836 5836 5836 5837 5837 5837 5837
5852 5853 5853 5853 5852 5852 5852 5852 5852 5851 5851 5851 5851 5850 5849 5849 5849 5849 5849 5848 5847 5846 5846 5845 5844 5842 5842 5841 5841 5839 5838 5837 5836 5835 5835 5835 5834 5834 5834 5834 5835 5835 5835
5848 5849 5849 5849 5849 5848 5848 5848 5848 5848 5847 5846 5846 5846 5846 5846 5846 5845 5845 5845 5844 5844 5843 5842 5841 5841 5840 5839 5838 5837 5836 5835 5834 5833 5832 5832 5832 5831 5832 5832 5832 5834 5834
5842 5843 5843 5844 5844 5844 5844 5844 5844 5844 5843 5843 5843 5843 5842 5841 5841 5841 5841 5841 5842 5841 5840 5839 5838 5838 5838 5837 5836 5835 5834 5833 5831 5830 5829 5829 5828 5827 5828 5828 5829 5830 5832
5837 5838 5838 5839 5839 5839 5839 5839 5838 5838 5839 5838 5839 5839 5838 5838 5837 5837 5837 5837 5837 5837 5836 5836 5835 5835 5835 5835 5834 5832 5831 5829 5828 5827 5827 5826 5825 5825 5825 5824 5826 5827 5829
5831 5832 5833 5834 5834 5834 5835 5834 5833 5833 5833 5833 5833 5832 5832 5832 5832 5832 5833 5833 5832 5833 5833 5833 5833 5833 5832 5832 5831 5830 5828 5826 5825 5824 5823 5823 5822 5821 5820 5821 5824 5824 5827
5826 5826 5827 5828 5828 5829 5829 5829 5828 5828 5828 5828 5828 5828 5828 5827 5827 5827 5828 5828 5828 5828 5829 5829 5830 5829 5830 5829 5828 5827 5826 5823 5822 5820 5820 5819 5819 5817 5816 5817 5820 5821 5823
5820 5820 5821 5821 5822 5822 5823 5823 5823 5823 5823 5824 5824 5824 5823 5823 5822 5822 5823 5823 5823 5824 5823 5824 5825 5826 5826 5826 5825 5824 5823 5822 5819 5818 5816 5815 5814 5814 5813 5812 5816 5817 5821
5813 5814 5814 5815 5815 5816 5816 5817 5817 5817 5818 5818 5818 5819 5819 5818 5818 5817 5817 5817 5817 5818 5818 5818 5820 5821 5822 5822 5821 5821 5820 5819 5816 5815 5813 5812 5810 5810 5809 5808 5811 5813 5818
5805 5806 5807 5807 5808 5809 5809 5810 5811 5811 5812 5812 5812 5813 5813 5813 5813 5813 5812 5812 5812 5813 5813 5814 5814 5816 5817 5817 5818 5817 5816 5815 5813 5812 5810 5808 5806 5806 5805 5804 5806 5809 5814
5798 5798 5798 5799 5800 5801 5802 5803 5803 5804 5805 5806 5807 5808 5807 5806 5807 5808 5807 5806 5807 5808 5808 5808 5810 5811 5811 5812 5813 5813 5811 5812 5810 5808 5807 5804 5802 5802 5801 5799 5802 5805 5810
5791 5791 5791 5791 5791 5792 5793 5794 5795 5796 5797 5799 5801 5802 5802 5800 5800 5802 5803 5802 5801 5802 5803 5803 5804 5804 5805 5806 5807 5808 5807 5806 5805 5804 5801 5800 5797 5796 5795 5794 5796 5802 5805
5784 5783 5783 5784 5784 5784 5785 5786 5787 5787 5789 5791 5794 5795 5795 5795 5794 5794 5796 5796 5797 5796 5796 5798 5798 5798 5799 5800 5801 5801 5801 5801 5800 5799 5796 5796 5794 5792 5791 5790 5792 5797 5800
5772 5775 5775 5775 5776 5776 5776 5778 5779 5779 5781 5783 5785 5786 5787 5788 5788 5788 5789 5790 5790 5790 5790 5792 5794 5792 5793 5794 5795 5796 5796 5795 5795 5793 5792 5791 5788 5786 5787 5785 5786 5792 5795
5764 5764 5765 5766 5767 5767 5767 5768 5770 5771 5773 5774 5776 5778 5779 5781 5781 5781 5781 5782 5785 5784 5783 5784 5786 5788 5786 5787 5789 5790 5790 5789 5789 5788 5785 5786 5783 5784 5782 5782 5785 5789 5791
5754 5753 5755 5754 5755 5756 5757 5758 5760 5761 5763 5764 5766 5769 5771 5772 5772 5773 5775 5776 5776 5777 5777 5776 5777 5780 5781 5781 5782 5783 5784 5784 5783 5782 5781 5782 5779 5779 5777 5778 5780 5784 5786
5742 5743 5745 5745 5745 5747 5748 5748 5749 5751 5752 5753 5755 5758 5761 5763 5764 5765 5766 5767 5767 5768 5769 5769 5769 5770 5773 5775 5775 5776 5778 5778 5777 5776 5775 5775 5774 5774 5773 5774 5776 5779 5780
5731 5732 5734 5735 5736 5736 5737 5739 5739 5740 5741 5743 5744 5747 5750 5752 5755 5756 5757 5759 5760 5758 5762 5762 5762 5763 5764 5767 5769 5769 5770 5771 5770 5769 5769 5768 5768 5768 5768 5770 5771 5766 5774
5722 5722 5723 5724 5725 5727 5728 5729 5731 5731 5731 5732 5733 5735 5739 5741 5743 5745 5747 5751 5750 5750 5753 5753 5754 5755 5757 5758 5759 5762 5762 5764 5763 5763 5762 5761 5761 5763 5763 5764 5765 5757 5770
5713 5713 5713 5714 5714 5715 5716 5718 5720 5721 5722 5723 5723 5725 5727 5730 5730 5732 5735 5739 5740 5740 5744 5744 5746 5747 5749 5751 5752 5754 5755 5756 5756 5756 5754 5754 5754 5755 5754 5758 5759 5760 5765
5701 5702 5703 5704 5704 5706 5706 5706 5707 5709 5710 5711 5711 5712 5713 5715 5717 5718 5722 5727 5728 5731 5734 5734 5737 5738 5740 5743 5744 5746 5746 5747 5748 5748 5746 5748 5746 5747 5746 5749 5754 5755 5758
5691 5691 5692 5693 5694 5694 5696 5698 5699 5698 5697 5696 5697 5699 5698 5700 5703 5706 5709 5713 5717 5720 5723 5725 5728 5729 5728 5732 5735 5737 5739 5741 5741 5739 5739 5740 5738 5739 5737 5741 5736 5748 5751
5680 5681 5682 5683 5684 5684 5684 5685 5685 5684 5684 5682 5681 5682 5680 5684 5687 5692 5695 5698 5705 5708 5712 5714 5717 5719 5720 5722 5725 5728 5731 5732 5732 5731 5730 5732 5732 5734 5734 5736 5734 5740 5746
5670 5670 5671 5672 5671 5672 5672 5671 5669 5667 5666 5663 5661 5661 5664 5666 5670 5673 5679 5690 5693 5696 5699 5702 5705 5707 5710 5715 5717 5720 5723 5723 5724 5725 5723 5724 5725 5726 5726 5728 5732 5736 5741
5660 5661 5661 5661 5660 5659 5658 5655 5652 5650 5646 5643 5641 5641 5646 5650 5654 5659 5667 5672 5679 5682 5687 5689 5690 5695 5700 5705 5709 5712 5715 5716 5716 5717 5717 5717 5719 5721 5722 5722 5727 5731 5735
5649 5650 5651 5651 5648 5647 5644 5640 5636 5632 5629 5628 5628 5630 5635 5639 5643 5648 5651 5658 5664 5670 5673 5679 5672 5682 5687 5694 5699 5703 5706 5707 5709 5708 5709 5709 5712 5713 5715 5719 5723 5726 5730
Wind_Speed
24 23 23 23 21 19 18 17 16 17 17 18 20 20 19 17 17 16 15 14 12 12 12 11 9 7 8 11 14 14 15 14 14 17 16 16 16 17 17 16 11 10 10
28 27 27 27 25 24 23 23 22 23 23 22 21 22 22 21 19 18 18 17 15 14 15 15 13 11 10 11 14 17 18 17 16 17 19 19 18 18 19 17 16 14 12
31 30 30 29 29 29 28 25 24 25 27 27 26 24 25 24 23 20 20 19 18 16 16 16 16 15 12 12 14 16 19 19 19 18 18 19 19 19 19 20 19 15 12
29 29 30 29 30 30 29 27 26 26 27 27 27 27 28 27 26 25 22 22 21 19 18 17 18 17 16 15 16 17 19 21 19 18 18 18 15 17 20 19 20 16 13
27 28 29 29 29 29 30 30 29 27 27 28 28 27 26 25 24 24 25 24 24 23 21 18 18 19 18 18 18 19 21 20 16 18 16 15 17 16 21 22 22 17 15
29 28 28 30 31 31 31 32 32 32 30 28 28 27 27 25 23 24 25 25 24 24 23 20 19 19 20 19 20 20 20 19 18 19 18 19 18 17 19 27 16 18 17
30 30 29 30 31 32 33 32 33 33 32 30 28 27 27 26 24 24 25 25 24 24 24 23 22 21 22 21 21 21 22 17 20 21 20 18 18 21 19 27 28 22 19
31 31 31 32 33 33 33 34 32 32 33 30 28 27 28 28 27 26 27 27 25 23 25 25 24 24 23 22 23 22 22 21 20 22 22 20 18 19 22 24 19 20 22
30 29 32 33 34 34 34 34 33 33 32 31 30 29 29 30 30 30 31 28 27 24 24 25 25 24 25 23 23 24 23 22 20 21 22 24 25 22 23 24 29 22 23
34 32 31 33 34 34 34 35 35 35 35 33 32 30 31 32 33 34 35 31 30 26 24 26 26 25 26 26 24 25 24 23 22 23 23 25 30 27 25 26 31 27 26
36 36 36 36 35 36 36 37 37 37 37 36 33 30 31 35 35 34 35 34 32 28 26 24 27 27 29 26 25 25 24 25 23 24 25 24 28 28 26 30 31 28 27
37 37 38 38 38 39 39 39 39 40 40 37 34 32 33 34 36 35 36 35 35 31 29 27 26 26 29 28 27 27 24 26 24 24 26 26 29 27 27 32 32 31 30
40 41 41 41 42 42 42 41 42 43 42 39 36 34 33 34 34 37 36 36 36 32 30 30 26 25 28 29 27 26 24 25 27 27 27 26 29 29 27 32 28 33 30
43 42 42 42 43 44 44 43 43 43 44 41 37 39 37 36 36 36 35 36 37 36 33 31 30 26 27 29 29 28 25 26 29 27 27 26 26 28 28 30 28 32 33
43 43 43 43 44 45 46 46 45 45 44 44 41 41 41 39 39 40 40 39 40 40 34 34 32 31 28 29 29 29 27 28 28 26 28 25 27 27 27 32 31 36 37
44 46 46 47 47 48 48 48 47 47 46 46 44 40 41 44 42 40 41 41 43 41 39 35 35 33 33 30 30 30 31 30 29 28 28 23 27 25 27 32 32 40 34
44 45 46 48 49 49 49 49 50 49 49 49 48 44 42 38 39 41 41 44 45 46 41 41 39 37 35 36 31 32 31 32 30 30 28 25 26 25 26 34 34 45 35
44 44 44 46 47 48 49 50 51 51 50 51 52 49 47 45 47 47 46 43 47 50 44 44 43 45 40 38 36 32 32 33 32 32 29 28 28 26 29 35 34 40 32
41 42 43 44 46 47 47 47 48 49 50 51 51 52 49 50 51 51 48 47 49 51 49 49 45 46 47 40 38 35 31 34 34 33 31 30 30 33 33 36 43 35 39
39 40 42 43 44 45 43 43 44 46 49 50 52 51 51 53 54 54 52 47 49 48 50 49 49 48 49 44 40 36 32 34 36 32 31 32 33 34 34 38 41 39 49
41 39 37 37 40 42 44 45 45 45 47 50 51 54 55 58 59 59 57 49 48 44 46 50 53 51 51 47 43 37 35 36 36 33 30 31 33 34 36 40 41 36 36
41 39 38 39 41 45 45 45 46 48 51 54 56 59 62 64 66 66 59 51 52 50 51 48 51 51 51 48 45 39 36 36 35 32 31 32 33 31 38 40 34 38 34
41 39 40 41 43 46 49 48 50 54 57 61 63 64 68 67 66 60 68 52 53 50 44 46 50 53 52 48 44 40 37 37 36 33 32 31 31 28 30 36 34 30 34
39 40 41 43 46 48 49 52 53 57 60 64 67 69 62 60 62 62 58 60 54 52 48 47 50 51 51 48 44 39 38 38 36 31 31 29 30 29 31 42 38 34 30
39 40 42 44 47 51 49 52 57 60 61 55 53 55 52 53 54 52 51 56 55 54 56 54 57 51 51 46 43 39 40 39 36 31 29 30 30 28 27 40 40 39 37
42 42 43 45 47 49 48 51 55 53 47 48 51 51 48 48 46 45 50 55 54 62 57 57 60 56 52 46 44 40 41 42 36 32 30 30 31 30 30 25 40 43 42
Wind_Direction
259 259 261 263 266 270 272 274 282 286 292 300 306 311 311 300 292 280 278 278 291 303 310 315 319 319 309 305 305 303 305 308 308 299 288 280 270 260 250 252 253 250 259
257 260 264 265 273 277 279 283 286 287 289 294 300 305 308 304 294 285 275 277 282 292 302 307 311 313 309 308 309 310 306 304 309 304 294 285 282 267 254 246 248 250 258
259 261 266 270 273 276 278 280 283 287 291 293 297 300 304 302 294 289 282 276 276 282 296 304 307 313 319 317 312 306 303 304 303 299 290 286 282 271 255 244 247 251 253
260 261 264 267 273 277 280 282 281 281 283 285 289 295 299 298 295 290 287 283 282 281 288 296 303 309 315 317 315 309 305 304 300 295 289 287 280 268 248 240 242 243 247
260 259 260 262 264 270 273 275 276 278 280 283 286 290 288 287 287 284 284 282 279 280 282 290 298 304 306 311 314 311 309 307 293 293 287 272 282 287 246 247 232 238 242
263 262 260 260 264 265 268 271 273 275 277 279 283 284 285 287 282 278 279 280 278 276 278 284 289 296 300 307 311 315 311 308 294 294 287 281 277 285 255 242 239 238 241
267 265 262 260 262 265 267 268 273 275 274 276 278 280 283 285 283 276 275 279 278 275 275 279 283 291 297 302 308 314 311 305 293 296 288 281 276 290 270 233 235 232 235
267 266 266 265 265 264 267 269 270 274 275 277 279 281 282 285 283 278 277 276 275 271 271 273 276 282 288 295 301 309 310 306 296 292 291 271 275 286 281 238 223 223 235
270 268 267 266 267 268 268 270 270 271 274 278 279 279 280 279 278 276 280 276 276 272 265 267 272 276 284 290 298 301 310 308 300 289 291 275 276 284 297 247 224 226 230
271 270 267 264 263 265 266 266 268 270 271 270 273 280 280 279 277 276 279 277 274 273 271 268 270 275 278 285 290 296 303 304 301 288 287 279 275 279 279 259 220 222 224
265 267 267 268 267 264 263 264 266 267 268 269 272 278 276 278 277 275 275 276 277 275 274 272 273 275 276 281 285 293 298 301 301 291 289 284 277 276 278 256 221 217 219
264 264 267 267 268 267 265 265 266 267 267 268 268 269 270 270 272 272 270 275 274 278 276 272 270 275 278 280 282 287 292 297 298 297 286 281 281 280 273 243 215 214 216
266 263 263 264 263 263 264 265 266 268 270 270 270 267 263 263 267 269 268 268 273 274 279 278 270 274 277 277 279 283 287 292 297 297 294 283 280 276 271 242 216 213 216
265 266 264 265 264 263 262 262 263 265 268 269 267 265 261 262 264 264 268 268 269 272 273 279 278 273 277 278 278 280 284 287 292 294 296 285 276 276 273 249 222 212 212
264 264 263 263 263 263 263 263 263 264 265 268 264 264 265 263 264 263 264 265 268 269 273 275 280 277 275 277 277 278 281 283 288 290 291 285 271 272 270 246 222 228 214
261 262 261 261 262 261 262 264 264 266 267 266 267 266 264 265 259 261 264 265 264 267 272 274 274 278 280 276 275 275 277 279 281 285 283 281 265 271 266 246 228 213 210
261 261 259 260 262 264 265 266 267 266 267 269 269 268 266 257 258 266 264 266 266 265 267 272 275 274 274 273 269 271 272 274 277 280 278 275 261 268 266 241 236 218 207
264 264 262 261 261 261 262 263 265 268 268 268 269 269 266 264 261 263 261 266 268 267 268 268 274 276 274 272 268 267 268 270 271 276 273 270 258 266 261 243 228 207 218
263 264 265 263 261 260 260 260 261 263 264 266 268 269 268 269 267 265 262 262 265 267 266 265 270 272 272 271 266 264 264 265 265 270 268 269 263 258 267 256 232 201 216
266 263 262 265 266 266 264 262 261 262 264 265 266 266 265 266 267 267 268 268 264 262 263 268 269 270 270 270 264 260 260 260 264 267 267 268 265 258 261 244 227 225 217
269 266 262 261 263 262 264 267 269 268 265 263 263 264 264 263 263 264 265 261 253 260 263 264 265 263 266 267 263 259 255 255 263 266 267 263 263 259 263 247 214 208 212
266 265 265 264 264 265 264 265 266 267 268 269 267 263 261 258 256 257 259 247 260 262 264 261 261 263 259 258 256 254 252 256 262 264 260 261 261 261 258 231 223 212 216
265 265 266 265 266 268 271 271 270 270 269 268 266 265 260 257 256 242 256 249 252 252 261 257 259 259 260 254 250 251 251 252 259 263 263 262 257 250 219 205 209 213 220
266 267 269 270 271 272 275 277 276 279 276 272 266 261 254 252 251 249 251 247 248 250 253 254 254 253 254 253 251 250 249 252 257 260 261 259 256 255 267 217 216 216 214
264 265 268 271 275 279 280 281 282 279 274 270 264 258 250 249 248 247 241 240 239 247 248 251 246 243 247 246 250 249 250 256 260 259 258 256 248 249 257 230 224 223 220
265 268 269 275 276 281 283 285 279 273 273 270 264 257 248 247 247 247 237 234 235 241 248 254 258 242 236 238 242 245 252 260 257 255 254 253 248 247 248 238 222 226 228